Weather in Pribelskiy

Russia / Republic of Bashkortostan     54°22′31″N   56°26′46″E
temp.,
°C
wind,
m/s
gust,
m/s
humid.,
%
clouds,
%
prec.,
mm/h
press.,
hPa
HPBL,
m
28 february, sun
sun2823:00−10ese4884100 0.1 1003221
02:00−10ese4795100 0.4 1002242
05:00−9ese3696100 1.5 1001206
08:00−9e3596100 1.2 1001185
11:00−7e2394100 1.9 1001234
14:00−4e1294100 0.9 1002253
17:00−3nnw229499 1.3 1002225
20:00−8nw479693 0.4 1005151
1 march, mon
mon123:00−10wnw239693 0.5 100877
02:00−11w249699 0.4 1010110
05:00−12w249699 0.8 1012105
08:00−14wsw239693 0.3 1013114
11:00−12w349296 0.6 1015376
14:00−11w3388100 0.3 1015489
17:00−11w3492100 0.5 1016405
20:00−15wnw249699 0.2 101792
2 march, tue
tue223:00−18wsw129892 0.3 101920
02:00−19sw229895 0.1 101840
05:00−20ssw349997 0.1 1018105
08:00−21s4109898 0.0 1016257
11:00−18s6129299 0.1 1013384
14:00−14ssw81394100 0.1 1010504
17:00−13ssw81492100 0.9 1007638
20:00−13s81593100 0.9 1006686
3 march, wed
wed323:00−11s71492100 1.6 1005608
02:00−8s61494100 0.7 1002543
05:00−5ssw51294100 1.1 1001434
08:00−5ssw5995100 0.9 1001352
11:00−4sw4795100 1.3 1002354
14:00−2wsw469699 0.4 1001506
17:00−2wsw4696100 1.0 1002432
20:00−4wsw3597100 0.9 1002151
4 march, thu
thu423:00−5wnw4896100 1.8 1004348
02:00−9wnw3796100 0.3 1004158
05:00−13wnw339797 0.4 100646
08:00−13wsw229798 0.1 100725
11:00−10sw359499 0.4 1007297
14:00−8ssw5792100 0.2 1006442
17:00−7ssw61192100 0.4 1006559
20:00−7ssw81589100 0.1 1004677